TimeCST,TemperatureF,Dew PointF,Humidity,Sea Level PressureIn,VisibilityMPH,Wind Direction,Wind SpeedMPH,Gust SpeedMPH,PrecipitationIn,Events,Conditions,WindDirDegrees,DateUTC
12:15 AM,41.0,33.8,76,29.82,10.0,Calm,Calm,-,N/A,,Unknown,0,2014-02-14 06:15:00
12:35 AM,41.0,33.8,76,29.81,10.0,Calm,Calm,-,N/A,,Unknown,0,2014-02-14 06:35:00
12:55 AM,41.0,33.8,76,29.81,10.0,Calm,Calm,-,N/A,,Unknown,0,2014-02-14 06:55:00
1:15 AM,39.2,33.8,81,29.80,10.0,Calm,Calm,-,N/A,,Unknown,0,2014-02-14 07:15:00
1:35 AM,39.2,33.8,81,29.78,10.0,Calm,Calm,-,N/A,,Unknown,0,2014-02-14 07:35:00
1:55 AM,41.0,35.6,81,29.78,10.0,Calm,Calm,-,N/A,,Unknown,0,2014-02-14 07:55:00
2:15 AM,41.0,35.6,81,29.77,10.0,Calm,Calm,-,N/A,,Clear,0,2014-02-14 08:15:00
2:35 AM,41.0,35.6,81,29.77,10.0,South,3.5,-,N/A,,Clear,190,2014-02-14 08:35:00
2:55 AM,41.0,35.6,81,29.76,10.0,Calm,Calm,-,N/A,,Clear,0,2014-02-14 08:55:00
3:15 AM,41.0,35.6,81,29.76,10.0,Calm,Calm,-,N/A,,Clear,0,2014-02-14 09:15:00
3:35 AM,41.0,35.6,81,29.76,10.0,Calm,Calm,-,N/A,,Clear,0,2014-02-14 09:35:00
3:55 AM,41.0,35.6,81,29.74,10.0,Calm,Calm,-,N/A,,Clear,0,2014-02-14 09:55:00
4:15 AM,41.0,35.6,81,29.73,10.0,Calm,Calm,-,N/A,,Clear,0,2014-02-14 10:15:00
4:35 AM,41.0,35.6,81,29.72,10.0,Calm,Calm,-,N/A,,Clear,0,2014-02-14 10:35:00
4:55 AM,41.0,35.6,81,29.72,10.0,Calm,Calm,-,N/A,,Clear,0,2014-02-14 10:55:00
5:15 AM,37.4,35.6,93,29.71,10.0,Calm,Calm,-,N/A,,Clear,0,2014-02-14 11:15:00
5:35 AM,37.4,35.6,93,29.70,10.0,Calm,Calm,-,N/A,,Clear,0,2014-02-14 11:35:00
5:55 AM,37.4,35.6,93,29.70,10.0,Calm,Calm,-,N/A,,Clear,0,2014-02-14 11:55:00
6:15 AM,37.4,35.6,93,29.70,10.0,Calm,Calm,-,N/A,,Clear,0,2014-02-14 12:15:00
6:35 AM,37.4,35.6,93,29.69,10.0,Calm,Calm,-,N/A,,Clear,0,2014-02-14 12:35:00
6:55 AM,37.4,35.6,93,29.71,10.0,Calm,Calm,-,N/A,,Clear,0,2014-02-14 12:55:00
7:15 AM,37.4,35.6,93,29.71,10.0,Calm,Calm,-,N/A,,Clear,0,2014-02-14 13:15:00
7:35 AM,37.4,35.6,93,29.73,10.0,Calm,Calm,-,N/A,,Clear,0,2014-02-14 13:35:00
7:55 AM,35.6,33.8,93,29.74,5.0,Calm,Calm,-,N/A,,Clear,0,2014-02-14 13:55:00
8:15 AM,41.0,37.4,87,29.77,10.0,Calm,Calm,-,N/A,,Clear,0,2014-02-14 14:15:00
8:35 AM,42.8,37.4,81,29.77,10.0,Calm,Calm,-,N/A,,Clear,0,2014-02-14 14:35:00
8:55 AM,44.6,37.4,76,29.80,10.0,NNE,9.2,-,N/A,,Clear,20,2014-02-14 14:55:00
9:15 AM,46.4,37.4,71,29.80,10.0,NNE,6.9,-,N/A,,Clear,30,2014-02-14 15:15:00
9:35 AM,50.0,37.4,62,29.80,10.0,NE,6.9,-,N/A,,Clear,40,2014-02-14 15:35:00
9:55 AM,51.8,37.4,58,29.82,10.0,North,8.1,-,N/A,,Clear,10,2014-02-14 15:55:00
10:15 AM,53.6,37.4,54,29.84,10.0,North,9.2,-,N/A,,Clear,10,2014-02-14 16:15:00
10:35 AM,57.2,35.6,44,29.86,10.0,North,11.5,23.0,N/A,,Clear,10,2014-02-14 16:35:00
10:55 AM,59.0,35.6,42,29.87,10.0,NNE,12.7,25.3,N/A,,Clear,20,2014-02-14 16:55:00
11:15 AM,60.8,35.6,39,29.89,10.0,North,13.8,24.2,N/A,,Clear,10,2014-02-14 17:15:00
11:35 AM,62.6,35.6,37,29.90,10.0,North,13.8,23.0,N/A,,Clear,10,2014-02-14 17:35:00
11:55 AM,62.6,32.0,32,29.91,10.0,NNE,13.8,24.2,N/A,,Clear,20,2014-02-14 17:55:00
12:15 PM,62.6,32.0,32,29.92,10.0,North,10.4,18.4,N/A,,Clear,10,2014-02-14 18:15:00
12:35 PM,62.6,30.2,30,29.93,10.0,NNE,15.0,23.0,N/A,,Unknown,20,2014-02-14 18:35:00
12:55 PM,62.6,28.4,27,29.93,10.0,NNE,17.3,28.8,N/A,,Unknown,20,2014-02-14 18:55:00
1:15 PM,62.6,28.4,27,29.92,10.0,North,12.7,23.0,N/A,,Unknown,360,2014-02-14 19:15:00
1:35 PM,62.6,28.4,27,29.92,10.0,NNE,11.5,26.5,N/A,,Unknown,20,2014-02-14 19:35:00
1:55 PM,64.4,28.4,26,29.93,10.0,North,10.4,20.7,N/A,,Unknown,360,2014-02-14 19:55:00
2:15 PM,64.4,28.4,26,29.95,10.0,North,12.7,23.0,N/A,,Unknown,360,2014-02-14 20:15:00
2:35 PM,62.6,26.6,26,29.96,10.0,North,9.2,19.6,N/A,,Unknown,350,2014-02-14 20:35:00
2:55 PM,62.6,24.8,24,29.96,10.0,North,12.7,21.9,N/A,,Unknown,360,2014-02-14 20:55:00
3:15 PM,62.6,24.8,24,29.96,10.0,North,15.0,23.0,N/A,,Unknown,360,2014-02-14 21:15:00
3:35 PM,62.6,23.0,22,29.97,10.0,North,13.8,19.6,N/A,,Unknown,10,2014-02-14 21:35:00
3:55 PM,62.6,23.0,22,29.98,10.0,North,11.5,18.4,N/A,,Unknown,350,2014-02-14 21:55:00
4:15 PM,62.6,23.0,22,29.98,10.0,North,10.4,16.1,N/A,,Unknown,360,2014-02-14 22:15:00
4:35 PM,62.6,24.8,24,29.99,10.0,NNE,9.2,-,N/A,,Unknown,20,2014-02-14 22:35:00
4:55 PM,60.8,24.8,25,30.00,10.0,North,4.6,-,N/A,,Unknown,10,2014-02-14 22:55:00
5:15 PM,60.8,23.0,23,30.01,10.0,North,9.2,-,N/A,,Unknown,10,2014-02-14 23:15:00
5:35 PM,60.8,23.0,23,30.02,10.0,North,5.8,-,N/A,,Unknown,360,2014-02-14 23:35:00
5:55 PM,59.0,23.0,25,30.03,10.0,North,6.9,-,N/A,,Unknown,360,2014-02-14 23:55:00
6:15 PM,57.2,24.8,29,30.04,10.0,North,5.8,-,N/A,,Unknown,360,2014-02-15 00:15:00
6:35 PM,55.4,24.8,31,30.04,10.0,NNW,3.5,-,N/A,,Unknown,340,2014-02-15 00:35:00
6:55 PM,53.6,24.8,33,30.05,10.0,North,3.5,-,N/A,,Unknown,350,2014-02-15 00:55:00
7:15 PM,53.6,23.0,30,30.05,10.0,Calm,Calm,-,N/A,,Unknown,0,2014-02-15 01:15:00
7:35 PM,51.8,23.0,33,30.06,10.0,Calm,Calm,-,N/A,,Unknown,0,2014-02-15 01:35:00
7:55 PM,51.8,23.0,33,30.07,10.0,Calm,Calm,-,N/A,,Unknown,0,2014-02-15 01:55:00
8:15 PM,50.0,23.0,35,30.08,10.0,Calm,Calm,-,N/A,,Unknown,0,2014-02-15 02:15:00
8:35 PM,50.0,23.0,35,30.09,10.0,Calm,Calm,-,N/A,,Unknown,0,2014-02-15 02:35:00
8:55 PM,46.4,24.8,43,30.08,10.0,Calm,Calm,-,N/A,,Unknown,0,2014-02-15 02:55:00
9:15 PM,48.2,23.0,37,30.08,10.0,Calm,Calm,-,N/A,,Unknown,0,2014-02-15 03:15:00
9:35 PM,46.4,23.0,40,30.09,10.0,Calm,Calm,-,N/A,,Unknown,0,2014-02-15 03:35:00
9:55 PM,46.4,23.0,40,30.09,10.0,Calm,Calm,-,N/A,,Unknown,0,2014-02-15 03:55:00
10:15 PM,41.0,26.6,57,30.09,10.0,Calm,Calm,-,N/A,,Unknown,0,2014-02-15 04:15:00
10:35 PM,39.2,26.6,61,30.09,10.0,Calm,Calm,-,N/A,,Unknown,0,2014-02-15 04:35:00
10:55 PM,37.4,28.4,70,30.08,10.0,Calm,Calm,-,N/A,,Unknown,0,2014-02-15 04:55:00
11:15 PM,42.8,26.6,53,30.11,10.0,NE,5.8,-,N/A,,Unknown,40,2014-02-15 05:15:00
11:35 PM,42.8,28.4,57,30.11,10.0,NE,5.8,-,N/A,,Unknown,40,2014-02-15 05:35:00
11:55 PM,42.8,28.4,57,30.11,10.0,NE,4.6,-,N/A,,Unknown,40,2014-02-15 05:55:00